Погода в Сегян-Кюёль

Россия / Республика Саха (Якутия)     64°00′09″N   130°18′37″E
темп.,
°C
ветер,
м/с
пор.,
м/с
влажн.,
%
обл.,
%
осадки,
мм/ч
давл.,
гПа
погр.,
м
3 марта, ср
ср300:00−31ююз1199100 0.1 102319
03:00−31юз1199100 0.2 102219
06:00−31зюз0099100 0.1 102119
09:00−30юз1197100 0.2 102080
12:00−29юз2294100 0.1 1019276
15:00−28юз2294100 0.3 1017271
18:00−30юз2399100 0.1 101765
21:00−32юз1199100 0.2 101620
4 марта, чт
чт400:00−32юз1199100 0.1 101619
03:00−33ююз1199100 0.3 101619
06:00−33зюз1199100 0.1 101619
09:00−31юз1196100 0.1 101665
12:00−30юз2189100 0.0 1017235
15:00−29зюз3389100 0.0 1018322
18:00−35сз129364 0.0 102119
21:00−36ссв347033 0.0 102321
5 марта, пт
пт500:00−35с347359 0.0 102326
03:00−33с237572 0.0 102433
06:00−33с127593 0.0 102424
09:00−30сз117996 0.0 102455
12:00−29юз338496 0.0 1024136
15:00−29юз339484 0.0 1024149
18:00−35юз239965 0.0 102519
21:00−32с237644 0.0 102523
6 марта, сб
сб600:00−30с44749 0.0 102430
03:00−29с447515 0.0 102532
06:00−29с337686 0.0 102528
09:00−30ююв118363 0.0 102529
12:00−28юз228931 0.0 1024141
15:00−27юз339752 0.0 1023145
18:00−32зюз119957 0.0 102419
21:00−34ююв019628 0.0 102419
7 марта, вс
вс700:00−34св11881 0.0 102419
03:00−33ссз11801 0.0 102419
06:00−34юз00830 0.0 102419
09:00−32ю11871 0.0 102426
12:00−28ю218825 0.0 1022155
15:00−27ю118745 0.0 1022217
18:00−32всв0010087 0.0 102219
21:00−33всв0110091 0.0 102219